Location: Lecco
(45.8566°N, 9.3977°E)
Time: 06:41:24
(UTC+02:00)

S-56A Canister/Altair - Pass Details

Date: 26 July 2019
Orbit: 633 x 2499 km, 38.9° (Epoch: 19 August)

Event Time Altitude Azimuth Distance (km) Brightness Sun altitude
Rises 07:04:59 0° 236° (SW) 4,558 10.9 9.8°
Reaches altitude 10° 07:07:44 10° 231° (SW) 3,806 10.5 10.3°
Maximum altitude 07:17:47 54° 159° (SSE) 2,410 10.3 12.0°
Drops below altitude 10° 07:31:29 10° 88° (E) 5,089 13.9 14.3°
Sets 07:35:46 0° 85° (E) 6,168 14.0 15.0°
